Home   Weather   USA   Unalaska   Past weeks
Flag for USA

Past Weather in Unalaska, Alaska, USA — Yesterday and Last 2 Weeks

Currently: 30 °F. Light snow. Ice fog. (Weather station: Dutch Harbor, USA). See more current weather

Past Weather in Unalaska — Graph

°F

Unalaska Temperature Yesterday

Maximum temperature yesterday: 37 °F (at 12:56 am)
Minimum temperature yesterday: 30 °F (at 9:09 am)
Average temperature yesterday: 32 °F

High & Low Weather Summary for the Past Weeks

 TemperatureHumidityPressure
High51 °F (Apr 10, 11:56 pm)100% (Apr 7, 3:24 am)30.57 "Hg (Apr 7, 3:24 am)
Low28 °F (Apr 9, 1:56 am)43% (Apr 10, 3:56 am)29.25 "Hg (Apr 6, 11:04 pm)
Average37 °F76%29.96 "Hg
* Reported Apr 3 6:56 pm — Apr 18 6:43 pm, Unalaska. Weather by CustomWeather, © 2024

Note: Actual official high and low records may vary slightly from our data, if they occured in-between our weather recording intervals... More about our weather records

Unalaska Weather History for the Previous 24 Hours

Scroll right to see more
 ConditionsComfort  
Time TempWeatherWind HumidityBarometerVisibility
6:43 pm
Thu, Apr 18
30 °FLight snow. Ice fog.29 mph93%29.88 "Hg3 mi
6:03 pm30 °FLight snow. Ice fog.24 mph93%29.88 "Hg1 mi
5:56 pm31 °FLight snow. Ice fog.30 mph89%29.90 "Hg2 mi
5:26 pm30 °FLight snow. Ice fog.26 mph93%29.89 "Hg2 mi
5:17 pm30 °FLight snow. Ice fog.26 mph93%29.89 "Hg2 mi
4:58 pm32 °FLight snow. Ice fog.29 mph87%29.88 "Hg3 mi
4:15 pm30 °FLight snow. Ice fog.25 mph93%29.89 "Hg1 mi
4:03 pm32 °FLight snow. Ice fog.29 mph87%29.88 "Hg2 mi
3:56 pm31 °FLight snow. Ice fog.28 mph89%29.90 "Hg3 mi
3:36 pm30 °FLight snow. Ice fog.30 mph93%29.88 "Hg2 mi
3:23 pm30 °FLight snow. Ice fog.30 mph93%29.89 "Hg3 mi
2:31 pm30 °FLight snow. Ice fog.24 mph93%29.89 "Hg1 mi
2:22 pm30 °FLight snow. Ice fog.33 mph93%29.89 "Hg1 mi
2:03 pm30 °FLight snow. Ice fog.31 mph93%29.89 "Hg1 mi
1:56 pm31 °FLight snow. Ice fog.29 mph89%29.90 "Hg1 mi
1:35 pm30 °FLight snow. Ice fog.29 mph93%29.90 "Hg1 mi
12:29 pm30 °FLight snow. Ice fog.30 mph86%29.89 "Hg2 mi
12:09 pm30 °FLight snow. Ice fog.32 mph86%29.88 "Hg2 mi
11:09 am32 °FLight snow. Ice fog.26 mph87%29.88 "Hg1 mi
10:12 am32 °FLight snow. Ice fog.30 mph87%29.88 "Hg4 mi
10:05 am32 °FLight snow. Ice fog.31 mph87%29.88 "Hg2 mi
9:07 am34 °FLight snow. Fog.33 mph81%29.87 "Hg2 mi
8:36 am32 °FLight snow. Ice fog.31 mph87%29.86 "Hg2 mi
7:56 am32 °FLight snow. Ice fog.25 mph88%29.88 "Hg2 mi
6:56 am33 °FRain. Fog.29 mph85%29.87 "Hg3 mi
5:56 am33 °FLight rain. Fog.25 mph85%29.86 "Hg5 mi
4:56 am33 °FRain. Fog.32 mph85%29.85 "Hg5 mi
4:15 am34 °FLight rain. Overcast.33 mph87%29.84 "Hg8 mi
3:35 am34 °FLight rain. Overcast.28 mph87%29.83 "Hg10 mi
2:56 am34 °FLight rain. Mostly cloudy.30 mph85%29.85 "Hg8 mi
1:56 am34 °FLight rain. Fog.36 mph88%29.83 "Hg4 mi
12:56 am34 °FLight rain. Fog.36 mph88%29.82 "Hg4 mi
11:56 pm
Wed, Apr 17
34 °FRain. Overcast.33 mph88%29.80 "Hg7 mi
10:56 pm34 °FLight rain. Fog.36 mph88%29.80 "Hg6 mi
9:56 pm34 °FLight rain. Fog.33 mph85%29.78 "Hg6 mi
9:20 pm34 °FLight rain. Fog.31 mph81%29.77 "Hg3 mi
9:13 pm34 °FLight rain. Fog.29 mph81%29.77 "Hg2 mi
8:56 pm33 °FLight rain. Fog.31 mph85%29.78 "Hg4 mi
8:33 pm34 °FLight rain. Fog.33 mph81%29.77 "Hg3 mi
8:01 pm34 °FLight rain. Fog.26 mph81%29.76 "Hg3 mi
7:43 pm34 °FLight snow. Fog.29 mph81%29.76 "Hg1 mi
Weather by CustomWeather, © 2024

See weather overview